When you browse on this site, cookies collect data to enhance your experience and personalize the content and advertising you see.
Visit our Privacy Policy to learn more. By continuing to use the site, you agree to this use of cookies and data.
  • In Hungary
  • List of Countries
  • For 7 days
  • Water Temperature
  • Satellite Maps
  • Weather Map
  • News
  • Weather Widgets
  • user-avatar
    Login

    Hourly Weather Managua

    Today, 21 January, Monday

    Time Temperature Precipitation Wind Pressure Humidity
    00:00 +27°C° 0 mm 6 mps 755 mmHg 70%
    01:00 +27°C° 0 mm 6 mps 755 mmHg 70%
    02:00 +26°C° 0 mm 6 mps 755 mmHg 70%
    03:00 +26°C° 0 mm 6 mps 755 mmHg 70%
    04:00 +26°C° 0 mm 6 mps 755 mmHg 70%
    05:00 +26°C° 0 mm 6 mps 755 mmHg 69%
    06:00 +26°C° 0 mm 6 mps 754 mmHg 69%
    07:00 +27°C° 0 mm 7 mps 755 mmHg 62%
    08:00 +29°C° 0 mm 7 mps 755 mmHg 55%
    09:00 +32°C° 0 mm 8 mps 756 mmHg 48%
    10:00 +33°C° 0 mm 8 mps 755 mmHg 46%
    11:00 +34°C° 0 mm 8 mps 755 mmHg 43%
    12:00 +37°C° 0 mm 9 mps 755 mmHg 40%
    13:00 +35°C° 0 mm 9 mps 754 mmHg 41%
    14:00 +35°C° 0 mm 9 mps 754 mmHg 43%
    15:00 +35°C° 0 mm 9 mps 753 mmHg 45%
    16:00 +33°C° 0 mm 8 mps 753 mmHg 49%
    17:00 +32°C° 0 mm 7 mps 754 mmHg 54%
    18:00 +29°C° 0 mm 7 mps 754 mmHg 59%
    19:00 +29°C° 0 mm 7 mps 754 mmHg 62%
    20:00 +28°C° 0 mm 7 mps 755 mmHg 66%
    21:00 +27°C° 0 mm 7 mps 755 mmHg 69%
    22:00 +27°C° 0 mm 7 mps 755 mmHg 70%
    23:00 +27°C° 0 mm 7 mps 755 mmHg 70%

    Tomorrow, 22 January, Tuesday

    Time Temperature Precipitation Wind Pressure Humidity
    00:00 +26°C° 0 mm 7 mps 755 mmHg 71%
    01:00 +26°C° 0 mm 7 mps 755 mmHg 72%
    02:00 +26°C° 0 mm 7 mps 754 mmHg 72%
    03:00 +26°C° 0 mm 7 mps 754 mmHg 73%
    04:00 +26°C° 0 mm 7 mps 754 mmHg 73%
    05:00 +26°C° 0 mm 7 mps 754 mmHg 73%
    06:00 +24°C° 0 mm 7 mps 754 mmHg 74%
    07:00 +27°C° 0 mm 7 mps 755 mmHg 67%
    08:00 +29°C° 0 mm 7 mps 755 mmHg 61%
    09:00 +31°C° 0 mm 8 mps 756 mmHg 55%
    10:00 +32°C° 0 mm 8 mps 755 mmHg 51%
    11:00 +33°C° 0 mm 8 mps 755 mmHg 48%
    12:00 +34°C° 0 mm 8 mps 755 mmHg 44%
    13:00 +35°C° 0 mm 8 mps 754 mmHg 43%
    14:00 +35°C° 0 mm 8 mps 753 mmHg 42%
    15:00 +35°C° 0 mm 8 mps 752 mmHg 41%
    16:00 +34°C° 0 mm 8 mps 752 mmHg 45%
    17:00 +32°C° 0 mm 7 mps 752 mmHg 49%
    18:00 +30°C° 0 mm 7 mps 753 mmHg 53%
    19:00 +29°C° 0 mm 7 mps 753 mmHg 56%
    20:00 +29°C° 0 mm 7 mps 754 mmHg 60%
    21:00 +28°C° 0 mm 7 mps 755 mmHg 64%
    22:00 +27°C° 0 mm 7 mps 754 mmHg 66%
    23:00 +27°C° 0 mm 8 mps 754 mmHg 68%

    Day after tomorrow, 23 January, Wednesday

    Time Temperature Precipitation Wind Pressure Humidity
    00:00 +27°C° 0 mm 8 mps 754 mmHg 71%
    01:00 +26°C° 0 mm 7 mps 754 mmHg 72%
    02:00 +26°C° 0 mm 7 mps 754 mmHg 74%
    03:00 +26°C° 0 mm 7 mps 753 mmHg 76%
    04:00 +26°C° 0 mm 7 mps 754 mmHg 76%
    05:00 +26°C° 0 mm 7 mps 754 mmHg 77%
    06:00 +26°C° 0 mm 7 mps 754 mmHg 78%
    07:00 +27°C° 0 mm 7 mps 754 mmHg 70%
    08:00 +29°C° 0 mm 7 mps 755 mmHg 62%
    09:00 +30°C° 0 mm 7 mps 755 mmHg 54%
    10:00 +33°C° 0 mm 7 mps 755 mmHg 50%
    11:00 +34°C° 0 mm 7 mps 754 mmHg 46%
    12:00 +35°C° 0 mm 7 mps 754 mmHg 42%
    13:00 +36°C° 0 mm 7 mps 753 mmHg 42%
    14:00 +36°C° 0 mm 7 mps 752 mmHg 42%
    15:00 +36°C° 0 mm 7 mps 751 mmHg 42%
    16:00 +34°C° 0 mm 6 mps 751 mmHg 46%
    17:00 +33°C° 0 mm 6 mps 752 mmHg 49%
    18:00 +32°C° 0 mm 6 mps 752 mmHg 53%
    19:00 +30°C° 0 mm 6 mps 753 mmHg 57%
    20:00 +29°C° 0 mm 6 mps 753 mmHg 62%
    21:00 +28°C° 0 mm 6 mps 754 mmHg 66%
    22:00 +27°C° 0 mm 6 mps 754 mmHg 68%
    23:00 +27°C° 0 mm 5 mps 754 mmHg 71%

    24 January, Thursday

    Time Temperature Precipitation Wind Pressure Humidity
    00:00 +26°C° 0 mm 5 mps 754 mmHg 73%
    01:00 +26°C° 0 mm 5 mps 753 mmHg 75%
    02:00 +26°C° 0 mm 5 mps 753 mmHg 78%
    03:00 +25°C° 0 mm 5 mps 753 mmHg 80%
    04:00 +25°C° 0 mm 4 mps 753 mmHg 80%
    05:00 +25°C° 0 mm 4 mps 753 mmHg 80%
    06:00 +25°C° 0 mm 4 mps 753 mmHg 81%
    07:00 +27°C° 0 mm 4 mps 754 mmHg 72%
    08:00 +29°C° 0 mm 5 mps 755 mmHg 64%
    09:00 +32°C° 0 mm 5 mps 755 mmHg 55%
    10:00 +34°C° 0 mm 5 mps 755 mmHg 50%
    11:00 +35°C° 0 mm 5 mps 754 mmHg 45%
    12:00 +37°C° 0 mm 5 mps 754 mmHg 40%
    13:00 +37°C° 0 mm 5 mps 753 mmHg 39%
    14:00 +37°C° 0 mm 5 mps 752 mmHg 39%
    15:00 +38°C° 0 mm 6 mps 751 mmHg 39%
    16:00 +35°C° 0 mm 6 mps 751 mmHg 44%
    17:00 +34°C° 0 mm 6 mps 752 mmHg 49%
    18:00 +32°C° 0 mm 6 mps 752 mmHg 53%
    19:00 +30°C° 0 mm 5 mps 753 mmHg 59%
    20:00 +29°C° 0 mm 5 mps 754 mmHg 64%
    21:00 +28°C° 0 mm 5 mps 754 mmHg 69%
    22:00 +27°C° 0 mm 5 mps 754 mmHg 72%
    23:00 +27°C° 0 mm 5 mps 754 mmHg 74%

    25 January, Friday

    Time Temperature Precipitation Wind Pressure Humidity
    00:00 +27°C° 0 mm 5 mps 754 mmHg 76%
    01:00 +26°C° 0 mm 5 mps 754 mmHg 77%
    02:00 +26°C° 0 mm 5 mps 753 mmHg 78%
    03:00 +26°C° 0 mm 5 mps 753 mmHg 78%
    04:00 +26°C° 0 mm 5 mps 753 mmHg 78%
    05:00 +26°C° 0 mm 5 mps 754 mmHg 78%
    06:00 +26°C° 0 mm 5 mps 754 mmHg 77%
    07:00 +27°C° 0 mm 5 mps 754 mmHg 69%
    08:00 +29°C° 0 mm 6 mps 755 mmHg 62%
    09:00 +32°C° 0 mm 6 mps 755 mmHg 54%
    10:00 +33°C° 0 mm 7 mps 755 mmHg 48%
    11:00 +35°C° 0 mm 7 mps 754 mmHg 43%
    12:00 +38°C° 0 mm 7 mps 754 mmHg 37%
    13:00 +38°C° 0 mm 7 mps 753 mmHg 36%
    14:00 +38°C° 0 mm 7 mps 752 mmHg 36%
    15:00 +38°C° 0 mm 6 mps 751 mmHg 35%
    16:00 +36°C° 0 mm 6 mps 752 mmHg 40%
    17:00 +34°C° 0 mm 5 mps 752 mmHg 45%
    18:00 +33°C° 0 mm 5 mps 752 mmHg 50%
    19:00 +32°C° 0 mm 5 mps 753 mmHg 55%
    20:00 +30°C° 0 mm 5 mps 754 mmHg 60%
    21:00 +29°C° 0 mm 4 mps 755 mmHg 65%
    22:00 +28°C° 0 mm 5 mps 755 mmHg 68%
    23:00 +28°C° 0 mm 5 mps 755 mmHg 71%

    26 January, Saturday

    Time Temperature Precipitation Wind Pressure Humidity
    00:00 +27°C° 0 mm 5 mps 755 mmHg 74%
    01:00 +27°C° 0 mm 5 mps 754 mmHg 76%
    02:00 +26°C° 0 mm 5 mps 754 mmHg 77%
    03:00 +26°C° 0 mm 4 mps 753 mmHg 79%
    04:00 +26°C° 0 mm 4 mps 754 mmHg 78%
    05:00 +26°C° 0 mm 4 mps 754 mmHg 78%
    06:00 +25°C° 0 mm 4 mps 754 mmHg 77%
    07:00 +27°C° 0 mm 5 mps 754 mmHg 69%
    08:00 +29°C° 0 mm 5 mps 755 mmHg 60%
    09:00 +32°C° 0 mm 5 mps 755 mmHg 51%
    10:00 +34°C° 0 mm 5 mps 755 mmHg 46%
    11:00 +35°C° 0 mm 6 mps 754 mmHg 41%
    12:00 +38°C° 0 mm 6 mps 753 mmHg 35%
    13:00 +38°C° 0 mm 6 mps 752 mmHg 35%
    14:00 +39°C° 0 mm 6 mps 751 mmHg 34%
    15:00 +39°C° 0 mm 5 mps 751 mmHg 34%
    16:00 +36°C° 0 mm 6 mps 751 mmHg 40%
    17:00 +34°C° 0 mm 6 mps 751 mmHg 46%
    18:00 +33°C° 0 mm 6 mps 752 mmHg 52%
    19:00 +30°C° 0 mm 5 mps 752 mmHg 58%
    20:00 +29°C° 0 mm 5 mps 753 mmHg 63%
    21:00 +28°C° 0 mm 5 mps 754 mmHg 68%
    22:00 +28°C° 0 mm 5 mps 754 mmHg 69%
    23:00 +27°C° 0 mm 4 mps 754 mmHg 70%
    Show more